Location: Klinovec
(50.3970°N, 12.9600°E)
Time: 03:54:05
(UTC+01:00)

N. Korean satellite - Pass Details

Date: 15 November 2019
Orbit: 456 x 506 km, 97.2° (Epoch: 05 December)

Event Time Altitude Azimuth Distance (km) Brightness Sun altitude
Rises 05:40:12 0° 19° (NNE) 2,625 10.4 -16.0°
Reaches altitude 10° 05:42:25 10° 27° (NNE) 1,733 9.6 -15.7°
Maximum altitude 05:45:57 39° 98° (E) 771 8.2 -15.1°
Drops below altitude 10° 05:49:25 10° 168° (SSE) 1,708 9.6 -14.6°
Sets 05:51:34 0° 176° (S) 2,580 10.5 -14.2°
